UAL615 KSFO-KLAX

Flight info

Callsign UAL615
Flight time 0h 59m
Altitude 35000
Route WESLA5 SUSEY EBAYE BURGL IRNMN2
Aircraft B38M/M-SDE1FGHILORVWXY/HB1

Departure

Time 2026-05-06 04:08
Airport San Francisco International Airport (KSFO)

Arrival

Time 2026-05-06 05:08
Airport Los Angeles International Airport (KLAX)
Time Latitude Longitude Altitude Speed Heading
2026-05-06 03:45 37.62018 -122.38943 19 ft 0 kts 27°
2026-05-06 03:55 37.62010 -122.38948 18 ft 4 kts 27°
2026-05-06 03:55 37.61994 -122.38959 18 ft 4 kts 34°
2026-05-06 03:55 37.61971 -122.38976 19 ft 4 kts 19°
2026-05-06 03:55 37.61947 -122.38979 19 ft 4 kts 335°
2026-05-06 03:56 37.61938 -122.38969 18 ft 1 kts 297°
2026-05-06 03:59 37.61940 -122.38975 19 ft 2 kts 297°
2026-05-06 03:59 37.61952 -122.39004 18 ft 5 kts 297°
2026-05-06 03:59 37.61974 -122.39057 17 ft 8 kts 297°
2026-05-06 04:00 37.62002 -122.39125 18 ft 10 kts 297°
2026-05-06 04:00 37.62036 -122.39193 18 ft 8 kts 322°
2026-05-06 04:00 37.62073 -122.39192 20 ft 4 kts 25°
2026-05-06 04:00 37.62109 -122.39174 19 ft 6 kts 18°
2026-05-06 04:01 37.62157 -122.39149 18 ft 9 kts 26°
2026-05-06 04:01 37.62211 -122.39108 18 ft 9 kts 44°
2026-05-06 04:01 37.62240 -122.39043 18 ft 9 kts 70°
2026-05-06 04:01 37.62262 -122.38957 18 ft 12 kts 72°
2026-05-06 04:02 37.62247 -122.38873 17 ft 11 kts 117°
2026-05-06 04:02 37.62208 -122.38781 16 ft 13 kts 117°
2026-05-06 04:02 37.62167 -122.38683 19 ft 12 kts 118°
2026-05-06 04:02 37.62129 -122.38591 21 ft 12 kts 118°
2026-05-06 04:03 37.62088 -122.38495 23 ft 13 kts 118°
2026-05-06 04:03 37.62048 -122.38397 27 ft 6 kts 117°
2026-05-06 04:03 37.62006 -122.38297 29 ft 19 kts 118°
2026-05-06 04:03 37.61936 -122.38132 24 ft 23 kts 118°
2026-05-06 04:04 37.61859 -122.37947 24 ft 25 kts 117°
2026-05-06 04:04 37.61800 -122.37772 20 ft 21 kts 111°
2026-05-06 04:04 37.61747 -122.37601 22 ft 21 kts 111°
2026-05-06 04:04 37.61687 -122.37428 24 ft 22 kts 116°
2026-05-06 04:05 37.61616 -122.37261 26 ft 22 kts 119°
2026-05-06 04:05 37.61541 -122.37086 27 ft 23 kts 118°
2026-05-06 04:05 37.61452 -122.36911 24 ft 25 kts 129°
2026-05-06 04:05 37.61362 -122.36768 21 ft 16 kts 124°
2026-05-06 04:06 37.61307 -122.36640 19 ft 18 kts 118°
2026-05-06 04:06 37.61244 -122.36490 18 ft 20 kts 118°
2026-05-06 04:06 37.61180 -122.36334 20 ft 20 kts 117°
2026-05-06 04:06 37.61110 -122.36171 20 ft 22 kts 118°
2026-05-06 04:07 37.61061 -122.36048 22 ft 13 kts 110°
2026-05-06 04:07 37.61068 -122.35942 21 ft 13 kts 58°
2026-05-06 04:07 37.61134 -122.35885 21 ft 11 kts 18°
2026-05-06 04:07 37.61196 -122.35908 23 ft 9 kts 308°
2026-05-06 04:08 37.61241 -122.36011 18 ft 32 kts 298°
2026-05-06 04:08 37.61486 -122.36590 21 ft 114 kts 298°
2026-05-06 04:08 37.61952 -122.37748 90 ft 175 kts 295°
2026-05-06 04:08 37.62557 -122.39173 791 ft 196 kts 298°
2026-05-06 04:09 37.63307 -122.40816 1410 ft 230 kts 299°
2026-05-06 04:09 37.64128 -122.42619 2368 ft 237 kts 297°
2026-05-06 04:09 37.64897 -122.44449 3199 ft 237 kts 296°
2026-05-06 04:09 37.65612 -122.46339 3749 ft 240 kts 297°
2026-05-06 04:10 37.66432 -122.48165 4778 ft 241 kts 298°
2026-05-06 04:10 37.66922 -122.50244 5420 ft 264 kts 273°
2026-05-06 04:10 37.66438 -122.52545 6100 ft 281 kts 237°
2026-05-06 04:10 37.64981 -122.54180 7034 ft 287 kts 205°
2026-05-06 04:11 37.63019 -122.54645 7847 ft 291 kts 171°
2026-05-06 04:11 37.61133 -122.53790 8780 ft 290 kts 149°
2026-05-06 04:11 37.59275 -122.52715 9618 ft 297 kts 156°
2026-05-06 04:11 37.57340 -122.51744 10477 ft 301 kts 155°
2026-05-06 04:12 37.55397 -122.50758 11163 ft 310 kts 155°
2026-05-06 04:12 37.53335 -122.49705 11591 ft 328 kts 155°
2026-05-06 04:12 37.51175 -122.48593 12143 ft 340 kts 155°
2026-05-06 04:12 37.49069 -122.47221 12893 ft 339 kts 139°
2026-05-06 04:13 37.47401 -122.45121 13665 ft 340 kts 129°
2026-05-06 04:13 37.45813 -122.42931 14329 ft 345 kts 129°
2026-05-06 04:13 37.44195 -122.40679 15022 ft 348 kts 128°
2026-05-06 04:13 37.42566 -122.38398 15693 ft 352 kts 128°
2026-05-06 04:14 37.40922 -122.36089 16334 ft 356 kts 128°
2026-05-06 04:14 37.39261 -122.33751 16959 ft 359 kts 128°
2026-05-06 04:14 37.37584 -122.31394 17612 ft 363 kts 128°
2026-05-06 04:14 37.35890 -122.29013 18233 ft 367 kts 128°
2026-05-06 04:15 37.34180 -122.26611 18777 ft 370 kts 127°
2026-05-06 04:15 37.32455 -122.24191 19321 ft 373 kts 127°
2026-05-06 04:15 37.30712 -122.21745 19829 ft 377 kts 127°
2026-05-06 04:15 37.28956 -122.19285 20369 ft 379 kts 127°
2026-05-06 04:16 37.27210 -122.16841 20868 ft 382 kts 127°
2026-05-06 04:16 37.25386 -122.14382 21388 ft 385 kts 129°
2026-05-06 04:16 37.23521 -122.11932 21819 ft 389 kts 128°
2026-05-06 04:16 37.22282 -122.10302 22140 ft 390 kts 128°
2026-05-06 04:17 37.20417 -122.07838 22699 ft 391 kts 128°
2026-05-06 04:17 37.18526 -122.05344 23135 ft 395 kts 128°
2026-05-06 04:17 37.16633 -122.02844 23665 ft 397 kts 128°
2026-05-06 04:17 37.14718 -122.00319 24046 ft 401 kts 128°
2026-05-06 04:18 37.12793 -121.97783 24472 ft 402 kts 128°
2026-05-06 04:18 37.10865 -121.95246 24910 ft 403 kts 128°
2026-05-06 04:18 37.08928 -121.92697 25285 ft 405 kts 128°
2026-05-06 04:18 37.06976 -121.90132 25662 ft 408 kts 128°
2026-05-06 04:19 37.05014 -121.87555 26087 ft 409 kts 128°
2026-05-06 04:19 37.03046 -121.84972 26493 ft 411 kts 128°
2026-05-06 04:19 37.01066 -121.82376 26923 ft 412 kts 128°
2026-05-06 04:19 36.99081 -121.79777 27464 ft 410 kts 127°
2026-05-06 04:20 36.97146 -121.77243 27967 ft 408 kts 127°
2026-05-06 04:20 36.95187 -121.74681 28456 ft 406 kts 127°
2026-05-06 04:20 36.93234 -121.72129 28924 ft 405 kts 127°
2026-05-06 04:20 36.91291 -121.69591 29370 ft 404 kts 127°
2026-05-06 04:21 36.89352 -121.67060 29815 ft 402 kts 127°
2026-05-06 04:21 36.87412 -121.64532 30231 ft 401 kts 127°
2026-05-06 04:21 36.85485 -121.62020 30565 ft 400 kts 127°
2026-05-06 04:21 36.83559 -121.59512 30925 ft 399 kts 126°
2026-05-06 04:22 36.81637 -121.57014 31266 ft 398 kts 126°
2026-05-06 04:22 36.79722 -121.54523 31551 ft 398 kts 126°
2026-05-06 04:22 36.77804 -121.52033 31851 ft 398 kts 126°
2026-05-06 04:23 36.73976 -121.47067 32451 ft 396 kts 126°
2026-05-06 04:23 36.72090 -121.44622 32723 ft 395 kts 126°
2026-05-06 04:23 36.70181 -121.42151 32987 ft 395 kts 126°
2026-05-06 04:23 36.68266 -121.39698 33262 ft 395 kts 126°
2026-05-06 04:24 36.66366 -121.37229 33526 ft 394 kts 126°
2026-05-06 04:24 36.64468 -121.34769 33785 ft 393 kts 125°
2026-05-06 04:24 36.62569 -121.32315 34036 ft 393 kts 126°
2026-05-06 04:24 36.60667 -121.29861 34253 ft 393 kts 125°
2026-05-06 04:25 36.58770 -121.27415 34441 ft 392 kts 126°
2026-05-06 04:25 36.56869 -121.24966 34630 ft 392 kts 126°
2026-05-06 04:25 36.54969 -121.22521 34778 ft 394 kts 125°
2026-05-06 04:25 36.53046 -121.20046 34669 ft 403 kts 126°
2026-05-06 04:26 36.51082 -121.17527 34669 ft 409 kts 126°
2026-05-06 04:26 36.47070 -121.12373 34702 ft 420 kts 126°
2026-05-06 04:27 36.42972 -121.07122 34739 ft 431 kts 126°
2026-05-06 04:27 36.38739 -121.01706 34775 ft 441 kts 126°
2026-05-06 04:27 36.36601 -120.98976 35037 ft 441 kts 127°
2026-05-06 04:28 36.34461 -120.96244 35113 ft 442 kts 127°
2026-05-06 04:28 36.30189 -120.90796 35089 ft 439 kts 126°
2026-05-06 04:29 36.25926 -120.85370 35098 ft 440 kts 126°
2026-05-06 04:29 36.21652 -120.79939 35104 ft 439 kts 126°
2026-05-06 04:30 36.17389 -120.74530 35095 ft 438 kts 126°
2026-05-06 04:30 36.13122 -120.69125 35093 ft 439 kts 127°
2026-05-06 04:31 36.08879 -120.63759 35090 ft 438 kts 127°
2026-05-06 04:31 36.04602 -120.58359 35091 ft 439 kts 127°
2026-05-06 04:32 36.00326 -120.52971 35084 ft 439 kts 127°
2026-05-06 04:32 35.96050 -120.47590 35078 ft 439 kts 127°
2026-05-06 04:33 35.91768 -120.42211 35089 ft 439 kts 127°
2026-05-06 04:33 35.87483 -120.36837 35081 ft 438 kts 127°
2026-05-06 04:34 35.83213 -120.31491 35087 ft 438 kts 127°
2026-05-06 04:34 35.78935 -120.26142 35075 ft 438 kts 127°
2026-05-06 04:35 35.74683 -120.20836 35096 ft 438 kts 127°
2026-05-06 04:35 35.70402 -120.15501 35065 ft 435 kts 127°
2026-05-06 04:36 35.65965 -120.10349 35057 ft 447 kts 140°
2026-05-06 04:36 35.60686 -120.06336 35045 ft 449 kts 141°
2026-05-06 04:37 35.55367 -120.02298 35068 ft 450 kts 141°
2026-05-06 04:37 35.50043 -119.98288 35069 ft 449 kts 141°
2026-05-06 04:38 35.44705 -119.94276 35071 ft 449 kts 141°
2026-05-06 04:38 35.39375 -119.90276 35077 ft 449 kts 141°
2026-05-06 04:39 35.34038 -119.86277 35075 ft 449 kts 141°
2026-05-06 04:39 35.28733 -119.82222 35073 ft 444 kts 135°
2026-05-06 04:40 35.23804 -119.77661 35060 ft 443 kts 135°
2026-05-06 04:40 35.21366 -119.75388 34955 ft 437 kts 134°
2026-05-06 04:40 35.18978 -119.73156 34607 ft 439 kts 134°
2026-05-06 04:40 35.16515 -119.70857 34234 ft 440 kts 134°
2026-05-06 04:41 35.14083 -119.68588 33731 ft 439 kts 134°
2026-05-06 04:41 35.11658 -119.66329 33132 ft 438 kts 134°
2026-05-06 04:41 35.09231 -119.64069 32580 ft 438 kts 134°
2026-05-06 04:41 35.06838 -119.61842 32099 ft 439 kts 134°
2026-05-06 04:42 35.04405 -119.59580 31642 ft 439 kts 133°
2026-05-06 04:42 35.01971 -119.57318 31137 ft 440 kts 133°
2026-05-06 04:42 34.99533 -119.55055 30614 ft 440 kts 133°
2026-05-06 04:42 34.97097 -119.52795 30117 ft 440 kts 133°
2026-05-06 04:43 34.94655 -119.50532 29560 ft 440 kts 133°
2026-05-06 04:43 34.92212 -119.48270 29044 ft 442 kts 134°
2026-05-06 04:43 34.89744 -119.46052 28495 ft 440 kts 135°
2026-05-06 04:43 34.87271 -119.43838 28154 ft 443 kts 135°
2026-05-06 04:44 34.84779 -119.41604 27674 ft 447 kts 135°
2026-05-06 04:44 34.82258 -119.39342 27183 ft 452 kts 135°
2026-05-06 04:44 34.79715 -119.37066 26702 ft 454 kts 136°
2026-05-06 04:44 34.77168 -119.34787 26228 ft 456 kts 136°
2026-05-06 04:45 34.74592 -119.32498 25704 ft 459 kts 137°
2026-05-06 04:45 34.72035 -119.30263 25206 ft 458 kts 137°
2026-05-06 04:45 34.69451 -119.28002 24748 ft 457 kts 137°
2026-05-06 04:45 34.66883 -119.25755 24262 ft 451 kts 137°
2026-05-06 04:46 34.64364 -119.23566 23750 ft 437 kts 139°
2026-05-06 04:46 34.61928 -119.21465 23223 ft 422 kts 139°
2026-05-06 04:46 34.59576 -119.19436 22743 ft 407 kts 139°
2026-05-06 04:46 34.57312 -119.17482 22334 ft 394 kts 138°
2026-05-06 04:47 34.55097 -119.15524 21853 ft 392 kts 138°
2026-05-06 04:47 34.52902 -119.13580 21398 ft 390 kts 138°
2026-05-06 04:47 34.50712 -119.11644 20983 ft 387 kts 139°
2026-05-06 04:47 34.48539 -119.09730 20511 ft 385 kts 139°
2026-05-06 04:48 34.46381 -119.07823 20103 ft 382 kts 139°
2026-05-06 04:48 34.44232 -119.05936 19601 ft 382 kts 140°
2026-05-06 04:48 34.42055 -119.04047 18987 ft 387 kts 141°
2026-05-06 04:48 34.39858 -119.02141 18427 ft 389 kts 141°
2026-05-06 04:49 34.37653 -119.00227 17810 ft 391 kts 141°
2026-05-06 04:49 34.35438 -118.98308 17198 ft 392 kts 141°
2026-05-06 04:49 34.33246 -118.96349 16658 ft 390 kts 140°
2026-05-06 04:49 34.31081 -118.94384 16230 ft 387 kts 140°
2026-05-06 04:50 34.28933 -118.92443 15793 ft 384 kts 140°
2026-05-06 04:50 34.26794 -118.90513 15357 ft 382 kts 141°
2026-05-06 04:50 34.24672 -118.88576 14803 ft 382 kts 140°
2026-05-06 04:50 34.22578 -118.86650 14346 ft 381 kts 140°
2026-05-06 04:51 34.20474 -118.84719 13922 ft 379 kts 141°
2026-05-06 04:51 34.18382 -118.82800 13413 ft 377 kts 141°
2026-05-06 04:51 34.16318 -118.80865 12936 ft 374 kts 136°
2026-05-06 04:51 34.14419 -118.78774 12525 ft 362 kts 135°
2026-05-06 04:52 34.12594 -118.76775 12197 ft 346 kts 135°
2026-05-06 04:52 34.10838 -118.74867 11866 ft 332 kts 135°
2026-05-06 04:52 34.09149 -118.73041 11518 ft 320 kts 135°
2026-05-06 04:52 34.07516 -118.71279 11203 ft 309 kts 135°
2026-05-06 04:53 34.05953 -118.69595 10875 ft 299 kts 134°
2026-05-06 04:53 34.04419 -118.67943 10551 ft 293 kts 133°
2026-05-06 04:53 34.03216 -118.66027 10204 ft 283 kts 108°
2026-05-06 04:53 34.02803 -118.63757 9915 ft 277 kts 94°
2026-05-06 04:54 34.02555 -118.61446 9630 ft 278 kts 94°
2026-05-06 04:54 34.02313 -118.59132 9317 ft 277 kts 94°
2026-05-06 04:54 34.02084 -118.56861 9013 ft 267 kts 94°
2026-05-06 04:54 34.01871 -118.54679 8721 ft 257 kts 94°
2026-05-06 04:55 34.01667 -118.52557 8432 ft 253 kts 94°
2026-05-06 04:55 34.01468 -118.50467 8199 ft 255 kts 94°
2026-05-06 04:55 34.01266 -118.48335 7955 ft 256 kts 94°
2026-05-06 04:55 34.01075 -118.46201 7669 ft 255 kts 91°
2026-05-06 04:56 34.01285 -118.44089 7315 ft 254 kts 76°
2026-05-06 04:56 34.01652 -118.42014 6983 ft 251 kts 77°
2026-05-06 04:56 34.02004 -118.39977 6671 ft 244 kts 77°
2026-05-06 04:56 34.02338 -118.38040 6425 ft 233 kts 77°
2026-05-06 04:57 34.02659 -118.36156 6163 ft 225 kts 80°
2026-05-06 04:57 34.02865 -118.34318 6117 ft 222 kts 83°
2026-05-06 04:57 34.03057 -118.32462 6106 ft 223 kts 82°
2026-05-06 04:57 34.03253 -118.30603 6073 ft 223 kts 82°
2026-05-06 04:58 34.03456 -118.28742 6005 ft 224 kts 82°
2026-05-06 04:58 34.03660 -118.26882 5844 ft 223 kts 82°
2026-05-06 04:58 34.03858 -118.25066 5622 ft 220 kts 82°
2026-05-06 04:58 34.04059 -118.23235 5574 ft 220 kts 82°
2026-05-06 04:59 34.04260 -118.21400 5495 ft 222 kts 83°
2026-05-06 04:59 34.04394 -118.20169 5188 ft 223 kts 82°
2026-05-06 04:59 34.04600 -118.18291 4575 ft 228 kts 82°
2026-05-06 04:59 34.04880 -118.15736 3759 ft 234 kts 82°
2026-05-06 05:00 34.05091 -118.13812 3330 ft 228 kts 82°
2026-05-06 05:00 34.05228 -118.12567 3125 ft 221 kts 82°
2026-05-06 05:00 34.05351 -118.10804 3004 ft 203 kts 98°
2026-05-06 05:00 34.04781 -118.09326 3035 ft 194 kts 136°
2026-05-06 05:01 34.03632 -118.08576 3093 ft 188 kts 167°
2026-05-06 05:01 34.02348 -118.08263 3105 ft 189 kts 171°
2026-05-06 05:01 34.01067 -118.08370 3001 ft 184 kts 205°
2026-05-06 05:01 34.00087 -118.09334 3021 ft 184 kts 229°
2026-05-06 05:02 33.99267 -118.10524 3086 ft 185 kts 231°
2026-05-06 05:02 33.98486 -118.11729 3065 ft 184 kts 239°
2026-05-06 05:02 33.98038 -118.13160 3064 ft 183 kts 257°
2026-05-06 05:02 33.97831 -118.14681 3083 ft 184 kts 262°
2026-05-06 05:03 33.97671 -118.16212 3096 ft 184 kts 263°
2026-05-06 05:03 33.97518 -118.17711 3066 ft 176 kts 263°
2026-05-06 05:03 33.97368 -118.19172 3057 ft 176 kts 263°
2026-05-06 05:03 33.97218 -118.20636 3078 ft 176 kts 263°
2026-05-06 05:04 33.97070 -118.22086 2993 ft 176 kts 263°
2026-05-06 05:04 33.96921 -118.23541 2788 ft 174 kts 263°
2026-05-06 05:04 33.96773 -118.24982 2572 ft 173 kts 263°
2026-05-06 05:04 33.96624 -118.26428 2355 ft 171 kts 263°
2026-05-06 05:05 33.96486 -118.27774 2158 ft 152 kts 262°
2026-05-06 05:05 33.96361 -118.28998 2004 ft 144 kts 262°
2026-05-06 05:05 33.96240 -118.30172 1778 ft 141 kts 262°
2026-05-06 05:05 33.96119 -118.31347 1590 ft 141 kts 262°
2026-05-06 05:06 33.96000 -118.32518 1396 ft 141 kts 262°
2026-05-06 05:06 33.95878 -118.33698 1205 ft 141 kts 261°
2026-05-06 05:06 33.95759 -118.34864 1013 ft 140 kts 262°
2026-05-06 05:06 33.95638 -118.36029 818 ft 140 kts 262°
2026-05-06 05:07 33.95521 -118.37179 648 ft 139 kts 263°
2026-05-06 05:07 33.95404 -118.38327 427 ft 136 kts 263°
2026-05-06 05:07 33.95286 -118.39446 231 ft 136 kts 264°
2026-05-06 05:07 33.95173 -118.40549 98 ft 125 kts 263°
2026-05-06 05:08 33.95088 -118.41394 99 ft 71 kts 263°
2026-05-06 05:08 33.95041 -118.41856 97 ft 40 kts 263°
2026-05-06 05:08 33.94994 -118.42101 96 ft 26 kts 241°
2026-05-06 05:08 33.94934 -118.42199 97 ft 0 kts 227°
2026-05-06 05:09 33.94934 -118.42200 96 ft 0 kts 227°
2026-05-06 05:09 33.94919 -118.42218 97 ft 8 kts 225°
2026-05-06 05:09 33.94856 -118.42271 100 ft 12 kts 199°
2026-05-06 05:10 33.94776 -118.42280 98 ft 12 kts 180°
2026-05-06 05:10 33.94694 -118.42258 98 ft 9 kts 136°
2026-05-06 05:10 33.94686 -118.42198 96 ft 7 kts 83°
2026-05-06 05:10 33.94694 -118.42125 97 ft 10 kts 83°
2026-05-06 05:11 33.94704 -118.42024 98 ft 14 kts 83°